Location: Angwan Shehu
(11.2514°N, 7.4613°E)
Time: 21:30:59
(UTC+00:00)

N. Korean satellite - Pass Details

Date: 09 March 2021
Orbit: 452 x 499 km, 97.2° (Epoch: 15 April)

Event Time Altitude Azimuth Distance (km) Brightness Sun altitude
Rises 04:25:44 0° 16° (NNE) 2,555 10.4 -19.2°
Reaches altitude 10° 04:27:48 10° 21° (NNE) 1,680 9.5 -18.7°
Maximum altitude 04:31:22 58° 100° (E) 578 7.2 -17.8°
Drops below altitude 10° 04:34:59 10° 180° (S) 1,695 9.3 -17.0°
Sets 04:37:05 0° 184° (S) 2,580 10.2 -16.4°
